Weather History for EGXG - November, 2013

Change the Weather History Date:

Tuesday, November 5, 2013

  Actual Average Record
Temperature  
Mean Temperature 38 °F -  
Max Temperature 46 °F - - ()
Min Temperature 31 °F - - ()
Degree Days  
Heating Degree Days 26    
Moisture  
Dew Point 39 °F    
Average Humidity 88    
Maximum Humidity 100    
Minimum Humidity 67    
Precipitation  
Precipitation 0.08 in - - ()
Sea Level Pressure  
Sea Level Pressure 29.24 in    
Wind  
Wind Speed 6 mph ()    
Max Wind Speed 17 mph    
Max Gust Speed -    
Visibility 5.5 miles    
Events Rain    
T = Trace of Precipitation, MM = Missing Value Source: Averaged Metar Reports

Daily Weather History Graph

Daily Weather History Graph

Search for Another Location

Airport or City:

Trip Planner

Search our weather history database for the weather conditions in past years. The results will help you decide how hot, cold, wet, or windy it might be!

Date:

Astronomy

Nov. 05, 2013 Rise Set
Actual Time 7:12 AM GMT 4:23 PM GMT
Civil Twilight 6:34 AM GMT 5:01 PM GMT
Nautical Twilight 5:52 AM GMT 5:43 PM GMT
Astronomical Twilight 5:11 AM GMT 6:24 PM GMT
Moon 9:25 AM GMT (11/5) 5:56 PM GMT (11/5)
Length of Visible Light 10h 26m
Length of Day
9h 10m
Waxing Crescent, 5% of the Moon is Illuminated
Nov 5
Waxing Crescent
Nov 10
First Quarter
Nov 17
Full
Nov 25
Last Quarter
Dec 3
New

Hourly Weather History & Observations

Time (GMT) Temp. Windchill Dew Point Humidity Pressure Visibility Wind Dir Wind Speed Gust Speed Precip Events Conditions
12:00 AM 34 °F - 31 °F 86% 29.39 in 4 mi West 2.3 mph - -   Mist
12:50 AM 33.8 °F 28.6 °F 33.8 °F 100% 29.36 in 3.1 mi South 5.8 mph - N/A   Mostly Cloudy
1:50 AM 33.8 °F 28.6 °F 33.8 °F 100% 29.36 in - South 5.8 mph - N/A   Mostly Cloudy
2:50 AM 33.8 °F 29.6 °F 33.8 °F 100% 29.33 in - ESE 4.6 mph - N/A   Overcast
3:00 AM 34 °F - 33 °F 95% 29.34 in 2 mi ESE 4.6 mph - -   Mist
3:50 AM 35.6 °F 30.7 °F 35.6 °F 100% 29.30 in - ESE 5.8 mph - N/A Rain Light Rain Showers
4:50 AM 37.4 °F 33.8 °F 35.6 °F 93% 29.27 in - East 4.6 mph - N/A Rain Rain
5:50 AM 37.4 °F 32.1 °F 37.4 °F 100% 29.24 in 5.0 mi ESE 6.9 mph - N/A   Mostly Cloudy
6:00 AM 37 °F - 36 °F 97% 29.25 in 5 mi ESE 6.9 mph - - Rain Rain
6:50 AM 39.2 °F 35.0 °F 37.4 °F 93% 29.21 in 5.0 mi ESE 5.8 mph - N/A Rain Light Rain Showers
7:50 AM 39.2 °F 34.2 °F 39.2 °F 100% 29.18 in 1.6 mi SE 6.9 mph - N/A Rain Rain
8:25 AM 39.2 °F 33.6 °F 39.2 °F 100% 29.18 in 3.7 mi SE 8.1 mph - N/A Rain Light Rain
8:50 AM 41.0 °F 36.4 °F 39.2 °F 93% 29.15 in 6.2 mi SE 6.9 mph - N/A   Overcast
9:00 AM 40 °F - 39 °F 95% 29.17 in 6 mi SE 6.9 mph - - Rain Light Rain
9:50 AM 41.0 °F 38.0 °F 39.2 °F 93% 29.15 in 5.0 mi SSE 4.6 mph - N/A   Haze
10:39 AM 42.8 °F 40.1 °F 41.0 °F 93% 29.15 in 6.2 mi SSE 4.6 mph - N/A   Mostly Cloudy
10:50 AM 42.8 °F 41.1 °F 42.8 °F 100% 29.15 in 6.2 mi SSE 3.5 mph - N/A   Mostly Cloudy
11:18 AM 44.6 °F 41.4 °F 42.8 °F 93% 29.15 in 6.2 mi South 5.8 mph - N/A   Mostly Cloudy
11:34 AM 44.6 °F 41.4 °F 42.8 °F 93% 29.15 in 5.6 mi West 5.8 mph - N/A   Haze
11:50 AM 44.6 °F 40.7 °F 42.8 °F 93% 29.15 in 5.6 mi West 6.9 mph - N/A   Haze
12:00 PM 44 °F - 42 °F 91% 29.17 in 6 mi West 6.9 mph - -   Haze
12:21 PM 42.8 °F 37.0 °F 41.0 °F 93% 29.18 in 2.2 mi WNW 10.4 mph - N/A Rain Light Rain
12:44 PM 42.8 °F 38.0 °F 41.0 °F 93% 29.18 in 6.2 mi NW 8.1 mph - N/A   Scattered Clouds
12:50 PM 44.6 °F 40.2 °F 41.0 °F 87% 29.18 in 6.2 mi NW 8.1 mph - N/A   Mostly Cloudy
1:06 PM 42.8 °F 37.0 °F 41.0 °F 93% 29.18 in 6.2 mi NNW 10.4 mph - N/A   Mostly Cloudy
1:50 PM 44.6 °F 40.7 °F 39.2 °F 81% 29.21 in 6.2 mi WNW 6.9 mph - N/A   Mostly Cloudy
2:15 PM 44.6 °F 39.2 °F 41.0 °F 87% 29.21 in 6.2 mi NNW 10.4 mph - N/A   Scattered Clouds
2:50 PM 44.6 °F 41.4 °F 41.0 °F 87% 29.24 in 6.2 mi NW 5.8 mph - N/A   Scattered Clouds
3:00 PM 45 °F - 40 °F 78% 29.24 in 9 mi NW 5.8 mph - -   Partly Cloudy
3:50 PM 46.4 °F 42.9 °F 39.2 °F 76% 29.24 in 6.2 mi West 6.9 mph - N/A   Scattered Clouds
4:50 PM 46.4 °F 42.9 °F 39.2 °F 76% 29.27 in - West 6.9 mph - N/A   Clear
5:50 PM 46.4 °F 42.4 °F 39.2 °F 76% 29.27 in 6.2 mi WSW 8.1 mph - N/A   Mostly Cloudy
6:00 PM 46 °F - 39 °F 67% 29.28 in 22 mi WSW 8.1 mph - -   Partly Cloudy
6:50 PM 44.6 °F 39.7 °F 39.2 °F 81% 29.30 in 6.2 mi West 9.2 mph - N/A   Partly Cloudy
7:50 PM 46.4 °F 40.7 °F 37.4 °F 71% 29.33 in 6.2 mi West 12.7 mph - N/A   Unknown
8:50 PM 44.6 °F 40.2 °F 37.4 °F 76% 29.33 in 6.2 mi West 8.1 mph - N/A   Unknown
9:00 PM 44 °F - 38 °F 71% 29.34 in 9 mi West 8.1 mph - -  
9:50 PM 44.6 °F 38.1 °F 37.4 °F 76% 29.33 in 4.3 mi West 13.8 mph - N/A   Haze
10:50 PM 44.6 °F 37.2 °F 37.4 °F 76% 29.33 in 6.2 mi West 17.3 mph - N/A   Partly Cloudy
11:50 PM 44.6 °F 37.4 °F 39.2 °F 81% 29.36 in 6.2 mi West 16.1 mph - N/A Rain Light Rain Showers